FW7925 Weather Reports


time (UTC)temp
C
wind
direction
speed
KPH
gust
KPH
rain 1hr
cm
rain 24hr
cm
rain mn
cm
humidity
%
barometer
mb
20260504180058 23 0 0.0 1.6 0.00 0.00 0.00 41 1015.5
20260504174555 23 0 0.0 3.2 0.00 0.00 0.00 43 1015.7
20260504173058 23 0 0.0 1.6 0.00 0.00 0.00 41 1015.9
20260504171610 24 0 0.0 1.6 0.00 0.00 0.00 42 1016.1
20260504160104 20 0 0.0 1.6 0.00 0.00 0.00 51 1017.0
20260504140109 13 0 0.0 1.6 0.00 0.00 0.00 75 1017.7
20260504120110 -17 0.0 0.0 0.00 0.00 0.00 1017.8
20260504110107 -17 0.0 0.0 0.00 0.00 0.00 1017.3
20260504081555 -17 0.0 0.0 0.00 0.00 0.00 1016.9
20260504060106 -17 0.0 0.0 0.00 0.00 0.00 1017.6
20260504050107 -17 0.0 0.0 0.00 0.00 0.00 1017.8
20260504044554 -17 0.0 0.0 0.00 0.00 0.00 1018.0
20260504043057 -17 0.0 0.0 0.00 0.00 0.00 1017.9
20260504041556 -17 0.0 0.0 0.00 0.00 0.00 1018.0
20260504034555 9 0 0.0 0.0 0.00 0.00 0.00 80 1017.9
20260504033106 10 0 0.0 0.0 0.00 0.00 0.00 79 1018.0
20260504031603 10 0 0.0 0.0 0.00 0.00 0.00 78 1018.1
20260504030056 10 0 0.0 0.0 0.00 0.00 0.00 77 1018.0
20260504024601 10 0 0.0 0.0 0.00 0.00 0.00 76 1018.0
20260504023059 11 0 0.0 0.0 0.00 0.00 0.00 74 1017.9
20260504021558 11 0 0.0 0.0 0.00 0.00 0.00 72 1017.7
20260504020057 12 0 0.0 0.0 0.00 0.00 0.00 69 1017.6
20260504014602 12 0 0.0 0.0 0.00 0.00 0.00 68 1017.0
20260504013109 12 0 0.0 0.0 0.00 0.00 0.00 66 1017.0
20260504011554 13 0 0.0 0.0 0.00 0.00 0.00 63 1016.9
20260504004613 14 0 0.0 0.0 0.00 0.00 0.00 59 1016.7
20260504003101 15 0 0.0 0.0 0.00 0.00 0.00 56 1016.5
20260504001558 15 0 0.0 0.0 0.00 0.00 0.00 54 1016.5
20260504000056 16 0 0.0 0.0 0.00 0.00 0.00 52 1016.5
20260503234559 16 0 0.0 0.0 0.00 0.00 0.00 52 1016.7
20260503233059 16 0 0.0 0.0 0.00 0.00 0.00 51 1016.6
20260503231557 17 0 0.0 0.0 0.00 0.00 0.00 54 1016.6
20260503230115 17 0 0.0 1.6 0.00 0.00 0.00 48 1016.7
20260503224558 17 0 0.0 1.6 0.00 0.00 0.00 46 1016.8
20260503223100 17 0 0.0 0.0 0.00 0.00 0.00 47 1016.7
20260503221605 17 0 0.0 1.6 0.00 0.00 0.00 46 1016.8
20260503214601 18 0 0.0 1.6 0.00 0.00 0.00 44 1016.7
20260503213100 18 0 0.0 1.6 0.00 0.00 0.00 44 1016.9
20260503211604 18 0 0.0 1.6 0.00 0.00 0.00 43 1017.0
20260503210055 18 0 0.0 4.8 0.00 0.00 0.00 39 1017.1
20260503204559 18 0 0.0 1.6 0.00 0.00 0.00 43 1017.1
20260503203101 18 0 0.0 1.6 0.00 0.00 0.00 45 1017.4
20260503201558 18 0 0.0 3.2 0.00 0.00 0.00 43 1017.7
20260503200056 18 0 0.0 4.8 0.00 0.00 0.00 44 1017.9
20260503194554 18 0 0.0 1.6 0.00 0.00 0.00 43 1018.2
20260503193059 17 116 0.0 1.6 0.00 0.00 0.00 48 1018.3
20260503191557 17 0 0.0 1.6 0.00 0.00 0.00 47 1018.7
20260503190058 17 131 0.0 3.2 0.00 0.00 0.00 48 1018.9
20260503184608 17 0 0.0 1.6 0.00 0.00 0.00 45 1019.0
20260503183057 17 0 0.0 3.2 0.00 0.00 0.00 46 1019.3
20260503181601 18 0 0.0 3.2 0.00 0.00 0.00 45 1019.3